| time (UTC) | temp C | wind direction | speed KPH | gust KPH | rain 1hr cm | rain 24hr cm | rain mn cm | humidity % | barometer mb |
| 20260506195956 | 12 | 267 | 4.8 | 6.4 | 0.00 | 1.04 | 1.04 | 60 | 1012.9 |
| 20260506195454 | 12 | 280 | 6.4 | 9.7 | 0.00 | 1.04 | 1.04 | 60 | 1013.0 |
| 20260506194945 | 12 | 163 | 3.2 | 11.3 | 0.00 | 1.04 | 1.04 | 59 | 1013.0 |
| 20260506194442 | 12 | 25 | 3.2 | 12.9 | 0.00 | 1.04 | 1.04 | 61 | 1013.1 |
| 20260506193939 | 12 | 273 | 8.0 | 16.1 | 0.00 | 1.04 | 1.04 | 58 | 1013.1 |
| 20260506193436 | 12 | 209 | 3.2 | 11.3 | 0.00 | 1.04 | 1.04 | 59 | 1013.0 |
| 20260506192933 | 13 | 167 | 1.6 | 6.4 | 0.00 | 1.04 | 1.04 | 61 | 1012.9 |
| 20260506192430 | 13 | 101 | 3.2 | 6.4 | 0.00 | 1.04 | 1.04 | 58 | 1012.7 |
| 20260506191926 | 13 | 22 | 3.2 | 17.7 | 0.00 | 1.04 | 1.04 | 60 | 1012.7 |
| 20260506191423 | 13 | 307 | 12.9 | 16.1 | 0.00 | 1.04 | 1.04 | 59 | 1012.6 |
| 20260506190920 | 13 | 193 | 1.6 | 4.8 | 0.00 | 1.04 | 1.04 | 65 | 1012.8 |
| 20260506190416 | 13 | 331 | 6.4 | 11.3 | 0.00 | 1.04 | 1.04 | 57 | 1012.9 |
| 20260506185913 | 14 | 287 | 8.0 | 14.5 | 0.00 | 1.04 | 1.04 | 57 | 1012.7 |
| 20260506185410 | 14 | 39 | 3.2 | 14.5 | 0.00 | 1.04 | 1.04 | 57 | 1012.9 |
| 20260506184908 | 13 | 224 | 9.7 | 14.5 | 0.00 | 1.04 | 1.04 | 60 | 1013.1 |
| 20260506184404 | 13 | 4 | 6.4 | 16.1 | 0.00 | 1.04 | 1.04 | 60 | 1013.0 |
| 20260506183902 | 13 | 293 | 4.8 | 12.9 | 0.00 | 1.04 | 1.04 | 60 | 1013.0 |
| 20260506183357 | 13 | 276 | 8.0 | 11.3 | 0.00 | 1.04 | 1.04 | 58 | 1012.8 |
| 20260506182854 | 13 | 200 | 6.4 | 12.9 | 0.00 | 1.04 | 1.04 | 56 | 1012.9 |
| 20260506182351 | 13 | 243 | 4.8 | 14.5 | 0.00 | 1.04 | 1.04 | 60 | 1013.0 |
| 20260506181848 | 14 | 11 | 6.4 | 9.7 | 0.00 | 1.04 | 1.04 | 57 | 1012.9 |
| 20260506181346 | 13 | 53 | 6.4 | 11.3 | 0.00 | 1.04 | 1.04 | 63 | 1012.7 |
| 20260506180843 | 13 | 31 | 3.2 | 9.7 | 0.00 | 1.04 | 1.04 | 58 | 1012.7 |
| 20260506180339 | 13 | 318 | 9.7 | 14.5 | 0.00 | 1.04 | 1.04 | 56 | 1012.9 |
| 20260506175836 | 13 | 238 | 6.4 | 9.7 | 0.00 | 1.04 | 1.04 | 60 | 1013.1 |
| 20260506175332 | 13 | 232 | 9.7 | 16.1 | 0.00 | 1.04 | 1.04 | 57 | 1013.1 |
| 20260506174824 | 13 | 276 | 6.4 | 16.1 | 0.00 | 1.04 | 1.04 | 60 | 1013.0 |
| 20260506174321 | 13 | 280 | 12.9 | 17.7 | 0.00 | 1.04 | 1.04 | 60 | 1012.8 |
| 20260506173819 | 13 | 189 | 8.0 | 12.9 | 0.00 | 1.04 | 1.04 | 59 | 1012.8 |
| 20260506173316 | 13 | 257 | 9.7 | 11.3 | 0.00 | 1.04 | 1.04 | 58 | 1012.6 |
| 20260506172813 | 13 | 241 | 4.8 | 16.1 | 0.00 | 1.04 | 1.04 | 64 | 1012.7 |
| 20260506172309 | 13 | 299 | 6.4 | 16.1 | 0.00 | 1.04 | 1.04 | 60 | 1012.7 |
| 20260506171806 | 13 | 232 | 6.4 | 14.5 | 0.00 | 1.04 | 1.04 | 62 | 1012.7 |
| 20260506171303 | 12 | 38 | 6.4 | 11.3 | 0.00 | 1.04 | 1.04 | 67 | 1012.8 |
| 20260506170801 | 13 | 323 | 6.4 | 14.5 | 0.00 | 1.04 | 1.04 | 62 | 1012.8 |
| 20260506170257 | 12 | 282 | 9.7 | 14.5 | 0.00 | 1.04 | 1.04 | 63 | 1012.8 |
| 20260506165756 | 13 | 304 | 6.4 | 12.9 | 0.00 | 1.04 | 1.04 | 64 | 1012.6 |
| 20260506165253 | 13 | 292 | 11.3 | 16.1 | 0.00 | 1.04 | 1.04 | 62 | 1013.1 |
| 20260506164750 | 13 | 280 | 6.4 | 6.4 | 0.00 | 1.04 | 1.04 | 70 | 1013.1 |
| 20260506164247 | 12 | 63 | 9.7 | 12.9 | 0.00 | 1.04 | 1.04 | 65 | 1013.1 |
| 20260506163743 | 12 | 313 | 3.2 | 11.3 | 0.00 | 1.04 | 1.04 | 68 | 1013.0 |
| 20260506163238 | 12 | 119 | 3.2 | 9.7 | 0.00 | 1.04 | 1.04 | 73 | 1012.8 |
| 20260506162734 | 12 | 71 | 1.6 | 11.3 | 0.00 | 1.04 | 1.04 | 70 | 1012.8 |
| 20260506162232 | 12 | 114 | 3.2 | 9.7 | 0.00 | 1.04 | 1.04 | 66 | 1012.6 |
| 20260506161729 | 12 | 298 | 4.8 | 9.7 | 0.00 | 1.04 | 1.04 | 68 | 1012.9 |
| 20260506161226 | 12 | 247 | 3.2 | 6.4 | 0.00 | 1.04 | 1.04 | 69 | 1012.7 |
| 20260506160724 | 11 | 223 | 4.8 | 4.8 | 0.00 | 1.04 | 1.04 | 78 | 1012.8 |
| 20260506160220 | 11 | 255 | 4.8 | 11.3 | 0.00 | 1.04 | 1.04 | 71 | 1013.1 |
| 20260506155719 | 12 | 295 | 14.5 | 16.1 | 0.00 | 1.04 | 1.04 | 68 | 1012.7 |
| 20260506155216 | 11 | 213 | 1.6 | 9.7 | 0.00 | 1.04 | 1.04 | 76 | 1012.5 |
| 20260506153323 | 11 | 274 | 8.0 | 11.3 | 0.00 | 1.04 | 1.04 | 76 | 1012.3 |
| 20260506152820 | 11 | 42 | 3.2 | 9.7 | 0.00 | 1.04 | 1.04 | 77 | 1012.1 |
| 20260506152318 | 11 | 215 | 4.8 | 12.9 | 0.00 | 1.04 | 1.04 | 78 | 1012.3 |
| 20260506151817 | 10 | 293 | 3.2 | 6.4 | 0.00 | 1.04 | 1.04 | 76 | 1012.3 |
| 20260506151313 | 10 | 261 | 6.4 | 11.3 | 0.00 | 1.04 | 1.04 | 78 | 1012.5 |
| 20260506150809 | 10 | 202 | 6.4 | 6.4 | 0.00 | 1.04 | 1.04 | 78 | 1012.4 |
| 20260506150307 | 10 | 253 | 11.3 | 16.1 | 0.00 | 1.04 | 1.04 | 75 | 1012.3 |
| 20260506145803 | 10 | 206 | 3.2 | 6.4 | 0.00 | 1.04 | 1.04 | 78 | 1012.4 |
| 20260506145300 | 10 | 329 | 8.0 | 12.9 | 0.00 | 1.04 | 1.04 | 80 | 1012.0 |
| 20260506144757 | 10 | 246 | 1.6 | 6.4 | 0.00 | 1.04 | 1.04 | 79 | 1012.0 |
| 20260506144254 | 10 | 203 | 1.6 | 11.3 | 0.00 | 1.04 | 1.04 | 80 | 1011.7 |
| 20260506143752 | 9 | 69 | 1.6 | 11.3 | 0.00 | 1.04 | 1.04 | 83 | 1011.9 |
| 20260506143249 | 9 | 228 | 3.2 | 6.4 | 0.00 | 1.04 | 1.04 | 83 | 1011.8 |
| 20260506142747 | 8 | 65 | 4.8 | 11.3 | 0.00 | 1.04 | 1.04 | 84 | 1011.8 |
| 20260506142245 | 9 | 302 | 3.2 | 11.3 | 0.00 | 1.04 | 1.04 | 86 | 1011.5 |
| 20260506141743 | 8 | 242 | 6.4 | 12.9 | 0.00 | 1.04 | 1.04 | 87 | 1011.5 |
| 20260506141241 | 8 | 217 | 3.2 | 6.4 | 0.00 | 1.04 | 1.04 | 89 | 1011.6 |
| 20260506140738 | 8 | 186 | 0.0 | 6.4 | 0.00 | 1.04 | 1.04 | 90 | 1011.7 |
| 20260506140235 | 8 | 46 | 6.4 | 9.7 | 0.00 | 1.04 | 1.04 | 90 | 1011.7 |
| 20260506135732 | 8 | 283 | 4.8 | 11.3 | 0.00 | 1.04 | 1.04 | 91 | 1011.6 |
| 20260506135228 | 7 | 324 | 3.2 | 9.7 | 0.00 | 1.04 | 1.04 | 91 | 1011.3 |
| 20260506134725 | 7 | 65 | 3.2 | 6.4 | 0.00 | 1.04 | 1.04 | 94 | 1011.5 |
| 20260506134221 | 7 | 280 | 6.4 | 9.7 | 0.00 | 1.04 | 1.04 | 93 | 1011.7 |
| 20260506133719 | 7 | 325 | 6.4 | 11.3 | 0.00 | 1.04 | 1.04 | 95 | 1011.6 |
| 20260506133215 | 7 | 46 | 4.8 | 9.7 | 0.00 | 1.04 | 1.04 | 96 | 1011.5 |
| 20260506132712 | 7 | 282 | 6.4 | 11.3 | 0.00 | 1.04 | 1.04 | 99 | 1011.7 |
| 20260506132209 | 7 | 193 | 1.6 | 11.3 | 0.00 | 1.04 | 1.04 | 99 | 1011.4 |
| 20260506131707 | 7 | 25 | 4.8 | 4.8 | 0.00 | 1.04 | 1.04 | 99 | 1011.0 |
| 20260506131203 | 7 | 234 | 4.8 | 6.4 | 0.00 | 1.04 | 1.04 | 99 | 1011.2 |
| 20260506130700 | 7 | 248 | 4.8 | 9.7 | 0.00 | 1.04 | 1.04 | 99 | 1011.2 |
| 20260506130157 | 7 | 204 | 3.2 | 4.8 | 0.00 | 1.04 | 1.04 | 99 | 1011.3 |
| 20260506125655 | 7 | 211 | 1.6 | 6.4 | 0.00 | 1.04 | 1.04 | 99 | 1010.8 |
| 20260506125153 | 7 | 208 | 1.6 | 6.4 | 0.00 | 1.04 | 1.04 | 99 | 1010.8 |
| 20260506124650 | 7 | 30 | 1.6 | 3.2 | 0.00 | 1.04 | 1.04 | 99 | 1010.5 |
| 20260506124148 | 7 | 170 | 0.0 | 1.6 | 0.00 | 1.04 | 1.04 | 99 | 1010.5 |
| 20260506123645 | 7 | 155 | 0.0 | 1.6 | 0.00 | 1.04 | 1.04 | 99 | 1010.1 |
| 20260506123144 | 6 | 148 | 0.0 | 1.6 | 0.00 | 1.04 | 1.04 | 99 | 1010.3 |
| 20260506122640 | 6 | 192 | 3.2 | 4.8 | 0.00 | 1.04 | 1.04 | 99 | 1010.2 |
| 20260506122138 | 6 | 239 | 3.2 | 4.8 | 0.00 | 1.04 | 1.04 | 99 | 1010.5 |
| 20260506121635 | 6 | 255 | 3.2 | 3.2 | 0.00 | 1.04 | 1.04 | 99 | 1010.3 |
| 20260506121132 | 6 | 209 | 1.6 | 4.8 | 0.00 | 1.04 | 1.04 | 99 | 1010.4 |
| 20260506120630 | 6 | 197 | 0.0 | 4.8 | 0.00 | 1.04 | 1.04 | 99 | 1010.4 |
| 20260506120127 | 6 | 159 | 0.0 | 1.6 | 0.00 | 1.04 | 1.04 | 99 | 1010.1 |
| 20260506115625 | 6 | 139 | 1.6 | 6.4 | 0.00 | 1.04 | 1.04 | 99 | 1010.2 |
| 20260506115123 | 6 | 243 | 3.2 | 6.4 | 0.00 | 1.04 | 1.04 | 99 | 1010.1 |
| 20260506114620 | 6 | 29 | 1.6 | 6.4 | 0.00 | 1.04 | 1.04 | 99 | 1010.0 |
| 20260506114118 | 6 | 236 | 3.2 | 4.8 | 0.00 | 1.04 | 1.04 | 99 | 1009.8 |
| 20260506113616 | 6 | 192 | 1.6 | 4.8 | 0.00 | 1.04 | 1.04 | 99 | 1009.6 |
| 20260506113113 | 6 | 268 | 4.8 | 12.9 | 0.00 | 1.04 | 1.04 | 99 | 1009.2 |
| 20260506112609 | 6 | 189 | 0.0 | 9.7 | 0.00 | 1.04 | 1.04 | 99 | 1009.3 |
| 20260506112107 | 6 | 340 | 0.0 | 6.4 | 0.00 | 1.04 | 1.04 | 99 | 1009.3 |
| 20260506111605 | 6 | 214 | 3.2 | 4.8 | 0.00 | 1.04 | 1.04 | 99 | 1009.8 |
| 20260506111102 | 6 | 102 | 1.6 | 3.2 | 0.00 | 1.04 | 1.04 | 99 | 1009.6 |
| 20260506110559 | 6 | 203 | 0.0 | 3.2 | 0.00 | 1.04 | 1.04 | 99 | 1009.6 |
| 20260506110056 | 6 | 197 | 0.0 | 0.0 | 0.00 | 1.04 | 1.04 | 99 | 1009.3 |
| 20260506105553 | 6 | 180 | 1.6 | 1.6 | 0.00 | 1.04 | 1.04 | 99 | 1009.3 |
| 20260506105050 | 6 | 150 | 0.0 | 4.8 | 0.00 | 1.04 | 1.04 | 99 | 1009.5 |
| 20260506104548 | 6 | 278 | 4.8 | 12.9 | 0.00 | 1.04 | 1.04 | 99 | 1009.7 |
| 20260506104045 | 6 | 284 | 3.2 | 4.8 | 0.00 | 1.04 | 1.04 | 99 | 1009.5 |
| 20260506103542 | 6 | 216 | 1.6 | 3.2 | 0.00 | 1.04 | 1.04 | 99 | 1009.5 |
| 20260506103039 | 6 | 204 | 3.2 | 3.2 | 0.00 | 1.04 | 1.04 | 99 | 1009.2 |
| 20260506102538 | 6 | 202 | 0.0 | 4.8 | 0.00 | 1.04 | 1.04 | 99 | 1008.8 |
| 20260506102035 | 6 | 163 | 0.0 | 1.6 | 0.00 | 1.04 | 1.04 | 99 | 1008.8 |
| 20260506101531 | 6 | 163 | 0.0 | 3.2 | 0.00 | 1.04 | 1.04 | 99 | 1008.3 |
| 20260506101028 | 6 | 205 | 1.6 | 3.2 | 0.00 | 1.04 | 1.04 | 99 | 1008.7 |
| 20260506100527 | 6 | 257 | 3.2 | 3.2 | 0.00 | 1.04 | 1.04 | 99 | 1008.4 |
| 20260506100024 | 6 | 194 | 0.0 | 3.2 | 0.00 | 1.04 | 1.04 | 99 | 1007.8 |
| 20260506095523 | 6 | 127 | 1.6 | 1.6 | 0.13 | 1.04 | 1.04 | 99 | 1007.8 |
| 20260506095019 | 6 | 134 | 0.0 | 3.2 | 0.13 | 1.04 | 1.04 | 99 | 1007.9 |
| 20260506094517 | 6 | 202 | 1.6 | 3.2 | 0.00 | 1.02 | 1.02 | 99 | 1008.6 |
| 20260506094014 | 6 | 195 | 1.6 | 3.2 | 0.00 | 1.02 | 1.02 | 99 | 1008.6 |
| 20260506093512 | 6 | 352 | 3.2 | 4.8 | 0.00 | 1.02 | 1.02 | 99 | 1008.9 |
| 20260506093010 | 6 | 86 | 3.2 | 6.4 | 0.00 | 1.02 | 1.02 | 99 | 1008.4 |
| 20260506092508 | 6 | 151 | 3.2 | 6.4 | 0.18 | 1.02 | 1.02 | 99 | 1008.3 |
| 20260506092004 | 6 | 67 | 3.2 | 9.7 | 0.00 | 0.99 | 0.99 | 99 | 1008.2 |
| 20260506091503 | 6 | 145 | 3.2 | 3.2 | 0.13 | 0.99 | 0.99 | 99 | 1008.6 |
| 20260506090959 | 6 | 109 | 4.8 | 6.4 | 0.13 | 0.99 | 0.99 | 99 | 1008.6 |
| 20260506090457 | 6 | 222 | 1.6 | 3.2 | 0.18 | 0.97 | 0.97 | 99 | 1008.8 |
| 20260506085953 | 6 | 109 | 3.2 | 4.8 | 0.18 | 0.97 | 0.97 | 99 | 1008.7 |
| 20260506085450 | 7 | 125 | 1.6 | 4.8 | 0.13 | 0.94 | 0.94 | 99 | 1008.6 |
| 20260506084946 | 6 | 157 | 1.6 | 3.2 | 0.13 | 0.94 | 0.94 | 99 | 1008.8 |
| 20260506084443 | 6 | 165 | 0.0 | 3.2 | 0.18 | 0.91 | 0.91 | 99 | 1008.5 |
| 20260506083939 | 7 | 168 | 0.0 | 1.6 | 0.18 | 0.91 | 0.91 | 99 | 1008.6 |
| 20260506083437 | 6 | 203 | 0.0 | 3.2 | 0.30 | 0.89 | 0.89 | 99 | 1008.6 |
| 20260506082934 | 7 | 314 | 6.4 | 6.4 | 0.30 | 0.86 | 0.86 | 99 | 1008.8 |
| 20260506082431 | 7 | 189 | 1.6 | 4.8 | 0.30 | 0.84 | 0.84 | 99 | 1008.6 |
| 20260506081926 | 7 | 153 | 4.8 | 11.3 | 0.18 | 0.81 | 0.81 | 99 | 1008.4 |
| 20260506081425 | 7 | 278 | 3.2 | 6.4 | 0.13 | 0.79 | 0.79 | 99 | 1008.6 |
| 20260506080922 | 7 | 13 | 4.8 | 6.4 | 0.18 | 0.76 | 0.76 | 99 | 1008.4 |
| 20260506080419 | 7 | 75 | 3.2 | 3.2 | 0.18 | 0.76 | 0.76 | 99 | 1008.4 |
| 20260506073403 | 8 | 1 | 3.2 | 4.8 | 0.18 | 0.69 | 0.69 | 99 | 1007.9 |
| 20260506072900 | 8 | 125 | 1.6 | 3.2 | 0.30 | 0.66 | 0.66 | 99 | 1007.6 |
| 20260506072357 | 8 | 87 | 4.8 | 9.7 | 0.30 | 0.64 | 0.64 | 99 | 1007.6 |
| 20260506071854 | 8 | 202 | 1.6 | 6.4 | 0.43 | 0.61 | 0.61 | 99 | 1007.5 |
| 20260506071353 | 8 | 194 | 0.0 | 3.2 | 0.48 | 0.58 | 0.58 | 99 | 1007.9 |
| 20260506070849 | 8 | 220 | 0.0 | 3.2 | 0.48 | 0.53 | 0.53 | 99 | 1008.1 |
| 20260506070346 | 8 | 4 | 3.2 | 6.4 | 0.43 | 0.51 | 0.51 | 99 | 1008.0 |
| 20260506062323 | 9 | 156 | 0.0 | 3.2 | 0.30 | 0.25 | 0.25 | 99 | 1007.6 |
| 20260506061819 | 9 | 246 | 1.6 | 4.8 | 0.30 | 0.23 | 0.23 | 99 | 1007.5 |
| 20260506061316 | 9 | 196 | 1.6 | 3.2 | 0.18 | 0.20 | 0.20 | 99 | 1007.8 |
| 20260506060815 | 9 | 330 | 3.2 | 4.8 | 0.13 | 0.18 | 0.18 | 99 | 1008.0 |
| 20260506060312 | 9 | 199 | 0.0 | 1.6 | 0.18 | 0.15 | 0.15 | 99 | 1008.0 |
| 20260506051244 | 9 | 179 | 0.0 | 3.2 | 0.00 | 0.05 | 0.05 | 99 | 1008.6 |
| 20260506050742 | 10 | 133 | 1.6 | 6.4 | 0.00 | 0.05 | 0.05 | 99 | 1008.5 |
| 20260506050239 | 10 | 178 | 0.0 | 0.0 | 0.00 | 0.05 | 0.05 | 99 | 1008.5 |
| 20260506044730 | 10 | 185 | 0.0 | 0.0 | 0.00 | 0.05 | 0.05 | 99 | 1008.5 |
| 20260506044227 | 10 | 230 | 1.6 | 3.2 | 0.00 | 0.05 | 0.05 | 99 | 1008.4 |
| 20260506043724 | 10 | 161 | 0.0 | 0.0 | 0.00 | 0.05 | 0.05 | 99 | 1008.6 |
| 20260506043222 | 10 | 244 | 1.6 | 3.2 | 0.00 | 0.05 | 0.05 | 99 | 1008.5 |
| 20260506042720 | 10 | 147 | 1.6 | 1.6 | 0.00 | 0.05 | 0.05 | 99 | 1008.7 |
| 20260506042218 | 10 | 194 | 0.0 | 1.6 | 0.13 | 0.05 | 0.05 | 99 | 1008.4 |
| 20260506041716 | 10 | 219 | 1.6 | 3.2 | 0.13 | 0.05 | 0.05 | 99 | 1008.7 |
| 20260506041213 | 10 | 211 | 1.6 | 3.2 | 0.18 | 0.03 | 0.03 | 99 | 1008.6 |
| 20260506040711 | 10 | 267 | 6.4 | 9.7 | 0.18 | 0.03 | 0.03 | 99 | 1008.8 |
| 20260506040207 | 10 | 189 | 0.0 | 6.4 | 0.00 | 0.00 | 0.00 | 99 | 1008.6 |
| 20260506035704 | 10 | 196 | 4.8 | 11.3 | 0.00 | 1.70 | 1.70 | 99 | 1008.9 |
| 20260506035201 | 10 | 257 | 6.4 | 9.7 | 0.13 | 1.70 | 1.70 | 99 | 1009.1 |
| 20260506034658 | 10 | 203 | 3.2 | 6.4 | 0.18 | 1.68 | 1.68 | 99 | 1008.9 |
| 20260506034155 | 10 | 156 | 3.2 | 9.7 | 0.30 | 1.68 | 1.68 | 99 | 1009.0 |
| 20260506033652 | 10 | 251 | 4.8 | 16.1 | 0.30 | 1.65 | 1.65 | 99 | 1008.9 |
| 20260506033149 | 11 | 225 | 3.2 | 6.4 | 0.30 | 1.63 | 1.63 | 99 | 1009.1 |
| 20260506032646 | 11 | 211 | 1.6 | 9.7 | 0.43 | 1.60 | 1.60 | 99 | 1009.0 |
| 20260506032143 | 12 | 209 | 6.4 | 16.1 | 0.48 | 1.57 | 1.57 | 99 | 1009.0 |
| 20260506031640 | 13 | 242 | 9.7 | 12.9 | 0.36 | 1.52 | 1.52 | 99 | 1008.8 |
| 20260506031137 | 13 | 205 | 4.8 | 11.3 | 0.18 | 1.50 | 1.50 | 99 | 1008.7 |
| 20260506030636 | 13 | 215 | 3.2 | 11.3 | 0.13 | 1.47 | 1.47 | 99 | 1008.9 |
| 20260506030132 | 13 | 188 | 4.8 | 11.3 | 0.30 | 1.47 | 1.47 | 99 | 1008.9 |
| 20260506025629 | 13 | 229 | 4.8 | 6.4 | 0.30 | 1.45 | 1.45 | 99 | 1008.9 |
| 20260506025125 | 13 | 225 | 6.4 | 9.7 | 0.30 | 1.42 | 1.42 | 99 | 1008.8 |
| 20260506024623 | 13 | 203 | 8.0 | 11.3 | 0.30 | 1.40 | 1.40 | 99 | 1008.8 |
| 20260506024119 | 13 | 188 | 1.6 | 9.7 | 0.13 | 1.37 | 1.37 | 99 | 1008.8 |
| 20260506023615 | 13 | 187 | 3.2 | 6.4 | 0.18 | 1.35 | 1.35 | 99 | 1009.2 |
| 20260506023113 | 13 | 191 | 1.6 | 3.2 | 0.18 | 1.35 | 1.35 | 99 | 1008.9 |
| 20260506022610 | 13 | 204 | 6.4 | 9.7 | 0.13 | 1.32 | 1.32 | 99 | 1009.1 |
| 20260506022107 | 13 | 191 | 1.6 | 6.4 | 0.43 | 1.32 | 1.32 | 99 | 1009.1 |
| 20260506021605 | 13 | 191 | 1.6 | 3.2 | 0.30 | 1.27 | 1.27 | 99 | 1009.2 |
| 20260506021102 | 13 | 193 | 0.0 | 1.6 | 0.18 | 1.24 | 1.24 | 99 | 1009.2 |
| 20260506020559 | 13 | 230 | 1.6 | 3.2 | 0.13 | 1.22 | 1.22 | 99 | 1009.1 |
| 20260506020056 | 14 | 213 | 1.6 | 4.8 | 0.13 | 1.22 | 1.22 | 99 | 1009.0 |
| 20260506015554 | 14 | 186 | 0.0 | 1.6 | 0.18 | 1.19 | 1.19 | 99 | 1009.2 |
| 20260506015050 | 14 | 194 | 1.6 | 1.6 | 0.18 | 1.19 | 1.19 | 99 | 1009.0 |
| 20260506014548 | 14 | 180 | 3.2 | 4.8 | 0.18 | 1.17 | 1.17 | 99 | 1009.3 |
| 20260506014043 | 14 | 180 | 0.0 | 3.2 | 0.18 | 1.17 | 1.17 | 99 | 1009.3 |
| 20260506013542 | 14 | 216 | 1.6 | 3.2 | 0.00 | 1.14 | 1.14 | 99 | 1009.0 |
| 20260506013038 | 14 | 275 | 6.4 | 6.4 | 0.00 | 1.14 | 1.14 | 99 | 1009.0 |
| 20260506012534 | 14 | 173 | 0.0 | 3.2 | 0.00 | 1.14 | 1.14 | 99 | 1008.9 |
| 20260506012031 | 14 | 191 | 0.0 | 4.8 | 0.13 | 1.14 | 1.14 | 99 | 1008.8 |
| 20260506011529 | 14 | 210 | 4.8 | 9.7 | 0.18 | 1.12 | 1.12 | 99 | 1009.0 |
| 20260506011025 | 14 | 185 | 1.6 | 3.2 | 0.18 | 1.12 | 1.12 | 99 | 1008.8 |
| 20260506010525 | 14 | 212 | 6.4 | 6.4 | 0.30 | 1.09 | 1.09 | 99 | 1008.8 |
| 20260506010021 | 14 | 195 | 1.6 | 4.8 | 0.43 | 1.09 | 1.09 | 99 | 1008.8 |
| 20260506005518 | 14 | 180 | 0.0 | 0.0 | 0.30 | 1.04 | 1.04 | 99 | 1008.6 |
| 20260506005014 | 14 | 184 | 0.0 | 1.6 | 0.30 | 1.02 | 1.02 | 99 | 1008.8 |
| 20260506004512 | 14 | 193 | 0.0 | 0.0 | 0.13 | 0.99 | 0.99 | 99 | 1008.7 |
| 20260506004008 | 13 | 194 | 0.0 | 0.0 | 0.00 | 0.97 | 0.97 | 99 | 1008.6 |
| 20260506003504 | 13 | 195 | 0.0 | 1.6 | 0.00 | 0.97 | 0.97 | 99 | 1008.6 |
| 20260506003000 | 13 | 200 | 0.0 | 1.6 | 0.00 | 0.97 | 0.97 | 99 | 1008.7 |
| 20260506002456 | 13 | 200 | 0.0 | 3.2 | 0.00 | 0.97 | 0.97 | 99 | 1008.6 |
| 20260506001952 | 13 | 196 | 0.0 | 1.6 | 0.00 | 0.97 | 0.97 | 99 | 1008.7 |
| 20260506001449 | 13 | 194 | 0.0 | 3.2 | 0.00 | 0.97 | 0.97 | 99 | 1008.6 |
| 20260506000946 | 13 | 196 | 0.0 | 1.6 | 0.00 | 0.97 | 0.97 | 99 | 1008.7 |
| 20260506000445 | 13 | 190 | 0.0 | 0.0 | 0.00 | 0.97 | 0.97 | 99 | 1008.7 |
| 20260505235940 | 14 | 201 | 0.0 | 3.2 | 0.00 | 0.97 | 0.97 | 99 | 1008.7 |
| 20260505235439 | 14 | 176 | 0.0 | 3.2 | 0.00 | 0.97 | 0.97 | 99 | 1008.9 |
| 20260505234935 | 13 | 207 | 0.0 | 4.8 | 0.18 | 0.97 | 0.97 | 99 | 1008.8 |
| 20260505234433 | 13 | 186 | 0.0 | 4.8 | 0.30 | 0.97 | 0.97 | 99 | 1008.8 |
| 20260505233929 | 13 | 190 | 0.0 | 3.2 | 0.13 | 0.94 | 0.94 | 99 | 1008.9 |
| 20260505233427 | 13 | 204 | 0.0 | 1.6 | 0.00 | 0.91 | 0.91 | 99 | 1009.2 |
| 20260505232924 | 13 | 207 | 3.2 | 4.8 | 0.00 | 0.91 | 0.91 | 99 | 1009.0 |
| 20260505232422 | 13 | 186 | 1.6 | 1.6 | 0.00 | 0.91 | 0.91 | 99 | 1009.1 |
| 20260505231919 | 13 | 221 | 3.2 | 6.4 | 0.00 | 0.91 | 0.91 | 99 | 1008.9 |
| 20260505231416 | 13 | 210 | 1.6 | 4.8 | 0.18 | 0.91 | 0.91 | 99 | 1009.0 |
| 20260505230914 | 13 | 202 | 1.6 | 4.8 | 0.18 | 0.91 | 0.91 | 99 | 1009.1 |
| 20260505230412 | 13 | 279 | 3.2 | 4.8 | 0.00 | 0.89 | 0.89 | 99 | 1009.0 |
| 20260505225908 | 13 | 179 | 4.8 | 6.4 | 0.13 | 0.89 | 0.89 | 99 | 1009.1 |
| 20260505225405 | 13 | 201 | 0.0 | 1.6 | 0.30 | 0.89 | 0.89 | 99 | 1009.0 |
| 20260505224901 | 13 | 210 | 1.6 | 4.8 | 0.36 | 0.86 | 0.86 | 99 | 1009.5 |
| 20260505224358 | 13 | 246 | 3.2 | 4.8 | 0.30 | 0.84 | 0.84 | 99 | 1009.5 |
| 20260505223855 | 13 | 220 | 4.8 | 6.4 | 0.30 | 0.81 | 0.81 | 99 | 1009.4 |
| 20260505223352 | 13 | 264 | 4.8 | 9.7 | 0.30 | 0.76 | 0.76 | 99 | 1009.5 |
| 20260505222848 | 13 | 197 | 4.8 | 12.9 | 0.48 | 0.74 | 0.74 | 98 | 1009.4 |
| 20260505222344 | 13 | 214 | 3.2 | 9.7 | 0.48 | 0.69 | 0.69 | 98 | 1009.4 |
| 20260505221841 | 13 | 176 | 3.2 | 6.4 | 1.37 | 0.64 | 0.64 | 98 | 1009.3 |
| 20260505221338 | 13 | 273 | 4.8 | 16.1 | 3.35 | 0.58 | 0.58 | 98 | 1009.4 |
| 20260505220835 | 17 | 275 | 27.4 | 41.8 | 1.02 | 0.20 | 0.20 | 90 | 1009.6 |
| 20260505220332 | 19 | 276 | 3.2 | 11.3 | 0.00 | 0.03 | 0.03 | 73 | 1008.5 |
| 20260505215830 | 19 | 216 | 3.2 | 6.4 | 0.00 | 0.03 | 0.03 | 71 | 1008.1 |
| 20260505215328 | 19 | 200 | 6.4 | 20.9 | 0.00 | 0.03 | 0.03 | 70 | 1008.0 |
| 20260505214825 | 19 | 239 | 6.4 | 9.7 | 0.00 | 0.03 | 0.03 | 70 | 1008.1 |
| 20260505214323 | 19 | 159 | 4.8 | 16.1 | 0.00 | 0.03 | 0.03 | 71 | 1008.0 |
| 20260505213819 | 20 | 202 | 1.6 | 9.7 | 0.00 | 0.03 | 0.03 | 70 | 1008.0 |
| 20260505213318 | 20 | 239 | 3.2 | 6.4 | 0.00 | 0.03 | 0.03 | 71 | 1007.9 |
| 20260505212813 | 19 | 202 | 3.2 | 4.8 | 0.00 | 0.03 | 0.03 | 71 | 1007.9 |
| 20260505212310 | 18 | 216 | 4.8 | 11.3 | 0.00 | 0.03 | 0.03 | 71 | 1008.1 |
| 20260505211806 | 18 | 201 | 3.2 | 4.8 | 0.00 | 0.03 | 0.03 | 71 | 1008.1 |
| 20260505211304 | 19 | 218 | 6.4 | 9.7 | 0.00 | 0.03 | 0.03 | 70 | 1008.1 |
| 20260505210801 | 18 | 177 | 3.2 | 6.4 | 0.00 | 0.03 | 0.03 | 72 | 1008.0 |
| 20260505210258 | 18 | 214 | 9.7 | 16.1 | 0.00 | 0.03 | 0.03 | 70 | 1008.2 |
| 20260505205754 | 18 | 214 | 1.6 | 6.4 | 0.00 | 0.03 | 0.03 | 71 | 1008.3 |
| 20260505205253 | 18 | 195 | 0.0 | 4.8 | 0.00 | 0.03 | 0.03 | 71 | 1008.4 |
| 20260505204749 | 18 | 214 | 3.2 | 6.4 | 0.00 | 0.03 | 0.03 | 71 | 1008.3 |
| 20260505204247 | 18 | 204 | 6.4 | 9.7 | 0.00 | 0.03 | 0.03 | 70 | 1008.3 |
| 20260505203744 | 18 | 178 | 0.0 | 11.3 | 0.00 | 0.03 | 0.03 | 71 | 1008.5 |
| 20260505203241 | 18 | 212 | 1.6 | 9.7 | 0.00 | 0.03 | 0.03 | 70 | 1008.5 |
| 20260505202737 | 18 | 218 | 8.0 | 11.3 | 0.00 | 0.03 | 0.03 | 69 | 1008.6 |
| 20260505202233 | 18 | 203 | 3.2 | 9.7 | 0.00 | 0.03 | 0.03 | 70 | 1008.7 |
| 20260505201729 | 18 | 261 | 6.4 | 9.7 | 0.00 | 0.03 | 0.03 | 71 | 1008.9 |
| 20260505201227 | 18 | 219 | 6.4 | 11.3 | 0.00 | 0.03 | 0.03 | 70 | 1008.6 |
| 20260505200726 | 18 | 215 | 3.2 | 12.9 | 0.00 | 0.03 | 0.03 | 70 | 1008.9 |
| 20260505200222 | 18 | 218 | 1.6 | 6.4 | 0.00 | 0.03 | 0.03 | 71 | 1008.8 |